Back to catalog

COSMOS 2491 DEB

AlivePO
NORAD 57567·DEBRIS·🇷🇺 Russia

Launched Dec 25, 2013 from Plesetsk Cosmodrome

Loading…

Next Passes (next 24 hours)

TLE

FreshSource: Space-Track

Epoch: Sep 12, 2026, 05:54 UTC

1 57567U 13076BE  26255.24627560  .00001719  00000-0  98107-2 0  9994
2 57567  82.4700  86.2117 0070517  11.8664 348.4066 12.59585257153294

Track COSMOS 2491 DEB in real time with AllMySat

Download on the App Store